Regional Weather Roundup
Issued by NWS

Home | Current Version | Previous Version | Text Only | Print | Product List | Glossary Off
Versions: 1 2 3 4 5 6 7 8 9 10 11 12 13 14 15 16 17 18 19 20 21 22 23 24 25 26 27 28 29 30 31 32 33 34 35 36 37 38 39 40 41 42 43 44 45 46 47 48 49 50

000
ASUS43 KMPX 011710
RWRMN
WEATHER ROUNDUP FOR MINNESOTA
NATIONAL WEATHER SERVICE TWIN CITIES/CHANHASSEN MN
1100 AM CST SUN FEB 01 2015


NOTE: "FAIR" INDICATES FEW OR NO CLOUDS BELOW 12,000 FEET WITH NO
SIGNIFICANT WEATHER AND/OR OBSTRUCTIONS TO VISIBILITY. N/A MEANS
CURRENT SKY AND/OR WEATHER CONDITIONS ARE NOT AVAILABLE.

MNZ060>063-068>070-011800-
   Twin Cities Metro

CITY           SKY/WX    TMP DP  RH WIND       PRES   REMARKS
TWIN CITIES    CLOUDY    13   1  59 NE21      30.25S WCI  -5
ST PAUL        CLOUDY    15   3  59 NE14G24   30.27F WCI   0
CRYSTAL        CLOUDY    15   0  51 NE16G22   30.25S WCI  -1
LAKEVILLE      CLOUDY    10   3  72 NE15G25   30.22S WCI  -6
EDEN PRAIRIE   CLOUDY    14   1  56 NE15      30.23S WCI  -1
SOUTH ST PAUL  CLOUDY    15   4  61 NE13G18   30.25F WCI   1
LAKE ELMO      FAIR      14   3  62 NE18      30.25S WCI  -3
$$
MNZ001>005-007-008-013>017-022>024-027-028-011800-
   Northwest Minnesota

CITY           SKY/WX    TMP DP  RH WIND       PRES   REMARKS
BEMIDJI        MOSUNNY   -6 -15  65 N8        30.43F WCI -22
HALLOCK        SUNNY     -9 -20  59 NW5       30.57F WCI -21
ROSEAU         SUNNY    -11 -20  64 CALM      30.52S
WARROAD        SUNNY    -15 -22  70 CALM      30.51S
THIEF RVR FALL SUNNY     -8 -11  84 N5        30.50F WCI -19
CROOKSTON      SUNNY     -8 -15  71 N9        30.56F WCI -25
FOSSTON        SUNNY     -6 -11  77 NE7       30.47S WCI -20
DETROIT LAKES  SUNNY      0 -13  55 NE7       30.42F WCI -13
MOORHEAD       SUNNY     -2 -11  65 N17       30.52R WCI -24
PARK RAPIDS    MOSUNNY   -1 -16  48 N10       30.40R WCI -17
MAHNOMEN       FAIR      -6 -15  65 NE10      30.46S WCI -23
$$
MNZ006-009>011-018-025>026-011800-
   North Central Minnesota

CITY           SKY/WX    TMP DP  RH WIND       PRES   REMARKS
BAUDETTE       SUNNY    -13 -20  71 NW5       30.48F WCI -25
FLAG ISLAND    MOSUNNY  -17 -24  70 NW5       30.50F WCI -29
INTL FALLS     MOSUNNY   -8 -17  64 CALM      30.46F
WASKISH        SUNNY     -6 -15  65 CALM      30.46F
BIG FORK       SUNNY     -6 -17  59 N3        30.43S
LONGVILLE      SUNNY     -2 -15  55 NE3       30.41R
GRAND RAPIDS   MOSUNNY   -4 -15  59 N9        30.38S WCI -20
CRANE LAKE     SUNNY    -11 -18  70 CALM      30.48S
ORR            SUNNY     -9 -20  59 CALM      30.39F
COOK           SUNNY     -8 -18  59 N5        30.41S WCI -19
WALKER         PTSUNNY   -6 -16  62 N8        30.43R WCI -22
$$
MNZ012-019>021-037-011800-
   Northeast Minnesota

CITY           SKY/WX    TMP DP  RH WIND       PRES   REMARKS
DULUTH         MOSUNNY    3 -15  43 N12       30.32F WCI -13
ELY            SUNNY     -9 -18  64 NE5       30.39S WCI -21
HIBBING        MOSUNNY   -2 -18  46 NE7       30.39S WCI -15
EVELETH        SUNNY     -2 -17  50 NE12      30.39S WCI -20
DULUTH HARBOR  MOSUNNY    9  -4  56 N20       30.40S WCI -11
TWO HARBORS    MOSUNNY    9 -13  37 NE7       30.35F WCI  -3
SILVER BAY     MOSUNNY    7 -17  33 N7        30.36F WCI  -5
GRAND MARAIS     N/A      4 -13  45 NE9       30.44F WCI -10
G MARAIS ARPRT MOSUNNY   -6 -20  49 NW9       30.29F WCI -22
$$
MNZ029>031-032-039>041-046>048-054>057-064-011800-
   West Central Minnesota

CITY           SKY/WX    TMP DP  RH WIND       PRES   REMARKS
FERGUS FALLS   SUNNY      1 -17  42 N12         N/A  WCI -15
WHEATON        MOSUNNY   -2 -11  65 NW18G26   30.46R WCI -24
MORRIS         SUNNY      7  -2  66 N18       30.36S WCI -12
ALEXANDRIA     MOSUNNY    5  -3  69 NE16      30.34R WCI -14
ELBOW LAKE     PTSUNNY    3  -8  61 N13       30.38S WCI -14
WADENA         MOSUNNY    1  -9  60 N14       30.37S WCI -17
GLENWOOD       MOSUNNY    9   0  66 N16       30.32S WCI  -9
APPLETON       MOSUNNY   10   0  61 N18       30.36R WCI  -8
BENSON         CLOUDY    10   0  61 NE14G20   30.34R WCI  -5
ORTONVILLE     SUNNY      3  -8  60 N22       30.39R WCI -19
MADISON        MOSUNNY   10   1  67 N21G28    30.36R WCI  -9
WILLMAR        FAIR      10   1  67 NE18G25   30.30R WCI  -8
$$
MNZ033>034-036-042>043-049>051-058-059-011800-
   Central Minnesota

CITY           SKY/WX    TMP DP  RH WIND       PRES   REMARKS
ST CLOUD       MOSUNNY    9  -1  64 N16       30.31R WCI  -8
SAUK CENTRE    FAIR       6  -3  66 N10G17    30.33R WCI  -8
PAYNESVILLE    MOSUNNY    7  -1  70 N16G24    30.30S WCI -11
AITKIN         SUNNY      7  -8  51 N9        30.35S WCI  -7
PINE RIVER     SUNNY      0 -11  60 N13       30.41S WCI -18
BRAINERD       SUNNY      4  -5  66 N10       30.36S WCI -11
STAPLES        MOSUNNY    1  -8  66 N10       30.37S WCI -14
LONG PRAIRIE   FAIR       7  -4  61 N14       30.33S WCI -10
LITTLE FALLS   SUNNY      9  -4  56 N7        30.34S WCI  -3
LITCHFIELD     CLOUDY    10   3  72 NE20G25   30.27R WCI  -8
BUFFALO        CLOUDY    13   3  65 N13G21    30.29R WCI  -2
MAPLE LAKE     PTSUNNY   12   5  71 N12G21    30.29R WCI  -2
$$
MNZ037-044-045-052-053-011800-
   East Central Minnesota

CITY           SKY/WX    TMP DP  RH WIND       PRES   REMARKS
PRINCETON      CLOUDY    10   1  67 N14       30.30R WCI  -5
MORA           CLOUDY     9   0  66 VRB7      30.33S WCI  -3
CAMBRIDGE      CLOUDY    12   1  62 N10G16    30.28S WCI  -1
RUSH CITY      CLOUDY    13   4  66 NE14G21   30.30S WCI  -2
MOOSE LAKE     PTSUNNY    9  -4  56 N12       30.33S WCI  -6
HINCKLEY       CLOUDY    12   3  67 N13G18    30.31F WCI  -3
CLOQUET        MOSUNNY    1  -9  60 N12       30.33S WCI -15
MCGREGOR       SUNNY      3  -8  60 N12       30.36S WCI -13
$$
MNZ071>073-080-081-089-090-097-098-011800-
   Southwest Minnesota

CITY           SKY/WX    TMP DP  RH WIND       PRES   REMARKS
MONTEVIDEO     PTSUNNY   10   1  67 NE20G28   30.34R WCI  -8
GRANITE FALLS  PTSUNNY   11   4  71 N17       30.32R WCI  -6
CANBY          CLOUDY     5  -2  72 N20G26    30.34R WCI -15
MARSHALL       CLOUDY     9   0  66 N23G30    30.28R WCI -12
REDWOOD FALLS  LGT SNOW  12   4  70 N9        30.27R WCI   0
OLIVIA         CLOUDY    10   5  79 N17G23    30.27R WCI  -7
PIPESTONE      CLOUDY     7   1  78 NE18G25   30.20R HAZE    WCI -12
WINDOM         LGT SNOW  10   7  85 N24       30.17R WCI -10
WORTHINGTON    CLOUDY    18   3  53 N21G31    30.16R VSB 3/4 WCI   1
JACKSON        CLOUDY    14   9  79 VRB24G32  30.13S HAZE    WCI  -5
TRACY          LGT SNOW  10   6  81 N22       30.24R WCI  -9
SLAYTON        LGT SNOW   8   4  84 N23       30.19S VSB 1   WCI -13
$$
MNZ065>067-074>077-082>085-091>093-011800-
   South Central Minnesota

CITY           SKY/WX    TMP DP  RH WIND       PRES   REMARKS
MANKATO        CLOUDY    14   7  73 NE21      30.18R WCI  -4
NEW ULM        LGT SNOW  12   7  79 NE16G26   30.21R WCI  -4
ST JAMES       LGT SNOW  16  10  79 N17       30.20R WCI   0
FAIRMONT       CLOUDY    14   9  79 N17G25    30.12R VSB 1/2 WCI  -3
GLENCOE        CLOUDY    15   4  62 NE12G21   30.23S WCI   2
FARIBAULT      CLOUDY    12   7  79 N18G28    30.19S HAZE    WCI  -5
OWATONNA       LGT SNOW  12   9  85 N20G29    30.14S WCI  -6
WASECA         LGT SNOW  14   9  79 N24       30.16S WCI  -5
ALBERT LEA     SNOW      14  10  85 NE20G26   30.09R VSB 1/2 WCI  -3
$$
MNZ078>079-086>088-094>096-011800-
   Southeast Minnesota

CITY           SKY/WX    TMP DP  RH WIND       PRES   REMARKS
ROCHESTER      SNOW      12   7  80 NE24G33   30.10R VSB 1/2 WCI  -8
RED WING       CLOUDY    14   1  57 NE9G17    30.22S WCI   2
STANTON        CLOUDY    13   8  79 NE20G25   30.19S HAZE    WCI  -5
DODGE CENTER   LGT SNOW  12   9  85 NE20G26   30.11R WCI  -6
WINONA         CLOUDY    16  10  79 NE10G16   30.18S HAZE    WCI   3
AUSTIN         LGT SNOW  14   9  79 NE18G30   30.08R WCI  -3
PRESTON        CLOUDY    13   8  83 NE21G26   30.08R WCI  -6
$$
ABBREVIATIONS USED IN REMARKS
   TC - TEMPERATURES IN CELSIUS
  WCI - WIND CHILL INDEX
   HX - HEAT INDEX
  VSB - VISIBILITY
$$


USA.gov is the U.S. government's official web portal to all federal, state and local government web resources and services.